Location: Unspecified
(0.0000°N, 0.0000°E)
Time: 07:51:10
(UTC+00:00)

LES 2 - Pass Details

Date: 14 October 2025
Orbit: 2783 x 14792 km, 32.1° (Epoch: 30 October)

Event Time Altitude Azimuth Distance (km) Brightness Sun altitude
Rises 20:34:49 0° 306° (NW) 10,533 ? -41.7°
Reaches altitude 10° 20:43:02 10° 307° (NW) 8,225 ? -43.7°
Enters shadow 21:02:16 74° 337° (NNW) 3,098 ? -48.4°
